Tracking 20241 objects as of 25-Jan-2020
HD Live streaming from Space Station
objects crossing your sky now

CZ-4C DEB

Track CZ-4C DEB now!
10-day predictions


NORAD ID: 38295
Int'l Code: 2010-059E
Perigee: 808.5 km
Apogee: 1,210.1 km
Inclination: 98.7 °
Period: 105.2 minutes
Semi major axis: 7380 km
RCS: 0.0013 m2 (small)
Launch date: November 4, 2010
Source: People's Republic of China (PRC)
Launch site: Taiyaun Space Center, China (TSC)

Note: This is SATELLITE DEBRIS
aabbcc
Your satellite tracking list
Your tracking list is empty




NASA's NSSDC Master Catalog

Two Line Element Set (TLE):
1 38295U 10059E   20024.27820897 +.00000039 +00000-0 +70242-4 0  9994
2 38295 098.6547 051.6395 0272054 275.5170 142.5743 13.69273947348613
Source of the keplerian elements: AFSPC